Location: Godiavel Galaoual
(15.2485°N, 12.6604°W)
Time: 14:03:03
(UTC+00:00)

Cosmos 1464 Rocket - Pass Details

Date: 27 February 2020
Orbit: 952 x 1002 km, 82.9° (Epoch: 29 March)

Event Time Altitude Azimuth Distance (km) Brightness Sun altitude
Rises 19:38:40 0° 185° (S) 3,688 7.2 -10.6°
Reaches altitude 10° 19:41:10 10° 186° (S) 2,746 6.5 -11.2°
Maximum altitude 19:47:29 81° 273° (W) 1,011 4.2 -12.7°
Drops below altitude 10° 19:53:52 10° 1° (N) 2,768 6.3 -14.3°
Sets 19:56:24 0° 3° (N) 3,719 7.0 -14.9°
